Wind_Speed
8 8 9 8 8 8 8 8 8 8 8 8 8 8 8 8 8 8 8 8 7 7 6 6 7 8 7 8 8 9 9 10 10 11 11 11 12 13 13 13 14 15 16
10 10 10 9 9 9 9 10 10 9 9 9 10 9 10 10 10 9 9 9 8 8 8 8 8 9 9 9 10 10 10 11 11 12 13 13 14 14 15 15 16 17 17
9 10 10 10 10 11 11 11 11 11 11 12 12 12 12 12 11 11 11 10 10 10 10 10 10 10 11 11 12 12 12 12 13 13 14 15 15 16 17 17 18 19 19
10 10 10 11 12 12 12 13 13 13 13 14 14 14 13 13 13 13 13 12 12 12 12 12 12 13 13 13 13 14 14 15 15 16 16 17 18 18 19 20 20 20 21
10 11 11 12 12 12 13 13 14 14 15 15 15 15 15 15 15 15 15 15 14 14 14 14 14 15 15 15 15 16 17 17 18 19 19 20 20 21 21 22 22 23 23
12 12 12 12 13 13 13 13 14 15 15 16 15 16 16 16 17 17 17 17 16 16 16 16 16 17 17 17 18 19 19 20 21 21 22 22 23 23 24 25 25 25 26
13 13 13 13 14 14 14 15 15 16 16 16 17 17 17 17 18 18 18 18 18 17 17 18 18 19 19 20 20 21 22 23 24 24 24 25 25 26 27 28 28 29 29
14 14 14 14 15 15 16 16 16 16 16 17 17 18 18 18 18 19 19 19 19 19 19 20 21 21 22 22 23 24 25 26 27 27 27 28 28 29 30 31 32 33 34
16 16 16 16 16 17 17 16 16 17 17 18 18 18 18 18 19 19 20 20 21 21 22 23 23 24 24 25 26 27 28 29 29 30 31 32 32 33 34 35 36 36 36
17 17 18 18 17 17 17 17 18 18 19 19 19 19 19 19 20 20 21 22 23 23 24 25 26 27 27 28 29 29 30 31 32 32 33 34 35 36 37 39 39 39 39
17 18 18 18 18 18 18 19 19 20 20 19 19 20 20 21 22 22 23 23 24 25 25 26 27 28 29 30 30 31 32 33 34 34 35 36 38 39 40 40 41 42 42
17 17 18 18 19 19 20 20 20 20 20 21 21 21 22 23 23 23 24 25 26 26 27 28 29 30 30 31 32 33 34 35 36 37 37 38 40 40 41 42 42 43 44
18 18 19 19 20 20 20 21 21 21 22 22 23 24 24 24 25 26 27 27 27 28 29 30 31 32 33 33 34 35 36 37 38 39 40 41 42 42 43 44 44 44 45
19 20 20 20 21 21 21 22 22 22 23 24 25 25 26 27 28 29 29 29 30 30 31 32 33 34 35 36 37 38 39 40 41 41 42 43 44 44 45 45 46 46 47
21 21 22 22 22 22 23 23 23 24 24 25 26 27 27 28 29 29 30 30 31 32 33 34 35 36 37 38 39 40 41 41 42 43 44 45 46 46 46 47 48 49 49
22 23 23 24 24 24 24 25 25 26 26 27 27 28 28 29 30 31 31 32 33 34 35 36 36 37 38 39 40 41 42 43 44 45 46 46 47 48 48 49 50 51 51
23 24 24 25 25 26 26 26 27 27 28 28 29 30 30 31 32 33 34 34 35 36 37 37 38 39 40 40 41 43 43 44 45 46 47 47 48 49 50 50 51 52 53
24 25 25 26 27 27 28 28 29 29 29 30 30 31 32 32 33 34 35 36 36 37 38 39 40 41 41 42 43 43 44 45 46 47 47 48 49 49 50 51 53 54 55
26 26 27 27 28 29 29 29 30 30 30 31 32 32 33 34 35 36 36 37 38 39 40 41 41 42 42 43 44 45 46 46 47 48 49 49 50 51 52 52 54 55 56
28 28 29 29 30 30 30 30 31 31 32 32 33 33 34 35 36 36 37 38 39 40 41 42 42 43 44 45 45 46 47 47 48 49 49 51 52 53 53 54 55 56 56
29 30 30 31 31 31 31 31 32 33 34 34 34 35 35 36 37 38 39 40 41 42 42 43 44 44 45 46 47 47 48 49 50 50 51 52 53 54 54 55 56 57 57
30 31 31 31 31 32 33 34 34 34 35 35 36 37 37 38 39 40 41 42 42 43 44 45 45 46 47 48 48 49 50 50 51 52 53 54 54 55 55 56 57 58 58
31 31 32 32 33 34 35 34 35 36 36 37 38 39 40 40 41 41 42 42 43 44 45 46 47 47 48 49 50 51 51 52 53 54 54 55 55 56 56 57 57 58 57
32 33 33 34 35 36 36 36 37 38 39 39 40 41 41 41 42 42 43 43 44 46 47 47 48 49 50 50 51 52 53 54 55 55 56 56 57 57 57 57 56 56 55
34 35 35 36 36 36 37 38 39 40 40 40 41 41 42 42 43 43 44 45 46 47 47 49 50 50 50 51 52 53 54 55 55 56 56 56 56 56 55 55 55 54 53
35 36 37 37 38 38 39 39 40 40 41 41 42 42 43 43 44 44 45 46 47 48 49 50 51 51 51 51 52 53 54 54 54 55 55 55 53 53 53 53 52 51 50
Wind_Direction
256 257 256 255 260 265 272 270 275 283 285 284 281 283 287 289 291 295 300 298 300 302 297 293 288 283 282 287 289 287 286 287 291 295 295 296 297 298 298 296 297 298 294
255 256 259 257 263 269 272 273 275 279 282 283 281 281 283 284 286 288 292 293 295 295 291 285 284 286 282 282 285 286 287 290 293 295 296 296 297 297 296 295 297 298 296
255 257 262 263 267 272 273 273 276 276 278 281 281 281 281 282 282 282 284 286 287 288 286 284 284 285 284 282 280 281 284 287 290 293 296 298 297 295 296 297 297 296 296
259 259 263 267 270 274 276 274 275 277 278 278 278 279 281 282 282 281 280 281 284 285 284 282 282 282 282 282 282 282 283 285 288 290 293 296 296 295 294 294 294 294 295
265 264 268 271 274 276 277 277 277 278 278 278 279 279 279 279 280 280 280 279 279 280 282 282 282 281 282 283 283 283 284 285 288 290 292 293 295 295 294 292 292 293 293
268 269 271 275 277 278 279 279 281 281 281 280 280 280 280 280 280 280 280 280 279 280 280 281 282 282 282 283 283 284 286 287 288 289 290 292 293 294 293 292 291 291 291
270 271 271 275 275 276 277 279 281 283 283 282 281 280 280 280 281 281 280 280 279 279 279 280 282 284 284 283 283 284 286 288 289 290 290 291 291 291 292 292 291 291 290
269 272 275 277 278 279 280 280 282 285 285 284 283 281 281 280 280 279 280 279 278 278 279 280 281 282 283 283 284 285 287 287 289 290 290 291 290 291 292 293 293 291 290
270 272 274 278 280 282 283 283 284 284 284 284 285 285 284 283 280 279 280 280 279 279 280 281 282 283 283 283 284 285 286 287 288 289 290 291 291 291 292 293 293 294 292
270 271 274 276 278 282 283 283 285 286 284 283 283 284 284 283 282 282 282 282 282 281 282 284 284 285 285 285 286 287 287 287 288 290 290 291 292 292 293 293 293 293 293
273 275 276 276 278 282 284 284 285 285 285 284 283 283 284 284 284 285 285 284 283 283 284 285 286 286 286 287 288 288 288 289 290 290 290 291 291 292 292 293 293 293 293
274 276 278 279 282 282 283 284 284 284 284 284 284 285 286 286 286 286 287 286 285 286 286 286 287 287 287 288 289 289 290 290 290 290 291 291 291 292 292 292 292 292 292
273 275 279 281 283 284 285 285 285 286 286 286 285 286 286 287 287 287 287 286 286 287 287 287 288 288 289 289 289 290 290 290 291 291 292 292 292 292 292 292 291 291 292
276 276 278 280 283 284 285 286 287 288 289 288 287 286 285 286 287 287 286 286 287 288 289 289 289 290 290 290 290 290 291 291 292 292 292 292 292 292 292 292 292 291 292
277 277 277 279 281 283 285 286 287 289 290 291 290 289 288 287 288 289 288 288 289 290 291 292 292 292 291 291 291 291 291 292 292 292 292 292 292 292 292 292 292 292 292
277 278 278 280 282 284 285 286 287 289 291 293 293 291 290 289 289 289 289 289 290 291 291 292 292 292 292 292 293 293 293 293 293 293 293 292 293 293 293 293 293 293 293
280 280 281 282 284 285 286 287 288 288 290 291 292 292 291 291 290 290 290 290 291 292 292 293 293 293 293 293 294 294 294 294 294 294 294 294 294 294 293 293 293 294 294
281 282 283 284 285 287 288 288 288 289 290 291 291 292 292 292 292 292 291 291 291 292 293 294 294 294 294 295 295 295 296 295 295 295 295 295 295 295 295 295 294 295 295
282 283 284 285 286 287 288 288 289 290 290 291 291 292 293 294 294 293 292 292 292 293 293 294 295 294 295 295 295 296 296 296 296 296 296 296 296 296 296 296 296 296 296
282 283 284 285 287 288 288 289 289 290 291 292 293 294 294 295 295 294 294 294 295 295 295 295 295 295 295 296 296 296 296 296 297 297 297 297 297 298 297 297 297 297 297
281 282 284 285 287 288 289 290 290 291 291 292 293 294 294 295 295 295 295 296 296 296 296 296 296 297 297 297 297 297 297 297 297 298 298 298 299 299 298 298 297 298 298
280 282 283 285 286 288 289 290 291 292 292 293 293 294 294 294 295 295 295 295 296 296 297 297 297 298 298 297 297 297 297 297 298 298 298 299 299 299 299 298 298 298 298
281 282 283 284 286 287 289 290 291 292 293 293 294 294 295 295 295 295 296 296 296 297 297 298 298 298 298 298 298 298 298 298 298 299 299 299 299 299 299 299 298 298 298
280 282 283 284 286 287 288 289 291 292 293 294 294 295 295 295 296 296 296 296 297 297 298 299 299 299 299 299 299 300 300 300 300 300 300 300 300 300 300 300 299 299 299
281 282 284 285 286 288 288 290 291 293 293 294 294 295 296 296 296 296 296 297 297 298 299 299 299 299 300 300 300 300 300 301 301 301 301 301 301 301 300 300 300 299 299
281 283 284 285 287 288 289 290 291 293 294 294 295 295 295 296 296 297 297 298 299 299 299 299 299 299 300 300 301 301 302 302 302 301 302 302 302 302 301 301 300 300 300
Height
5866 5867 5868 5868 5869 5869 5869 5869 5869 5869 5869 5869 5869 5868 5868 5867 5867 5866 5866 5865 5864 5863 5863 5863 5863 5863 5864 5864 5864 5864 5864 5864 5864 5864 5863 5862 5862 5861 5860 5860 5859 5858 5857
5864 5865 5865 5866 5867 5867 5867 5867 5867 5867 5867 5867 5866 5866 5866 5865 5864 5864 5863 5863 5862 5862 5861 5861 5861 5861 5861 5861 5861 5861 5861 5861 5861 5860 5860 5859 5858 5857 5857 5856 5855 5854 5853
5861 5862 5863 5864 5864 5865 5865 5865 5865 5865 5864 5864 5863 5863 5862 5862 5861 5861 5860 5860 5860 5859 5859 5859 5859 5859 5859 5859 5858 5858 5858 5858 5857 5857 5856 5855 5854 5853 5852 5852 5851 5850 5848
5859 5860 5861 5861 5862 5862 5862 5862 5862 5861 5861 5860 5860 5859 5859 5858 5858 5857 5857 5857 5856 5856 5856 5856 5855 5855 5855 5855 5855 5855 5854 5854 5853 5853 5852 5851 5850 5849 5848 5847 5846 5844 5843
5857 5857 5858 5858 5858 5858 5858 5858 5858 5858 5857 5856 5856 5855 5855 5854 5854 5853 5853 5853 5853 5853 5852 5852 5852 5852 5851 5851 5851 5850 5850 5849 5849 5848 5847 5846 5845 5843 5842 5841 5840 5838 5837
5854 5854 5855 5855 5855 5855 5855 5855 5855 5854 5853 5852 5852 5851 5851 5850 5849 5849 5848 5848 5848 5848 5848 5848 5848 5847 5847 5847 5846 5845 5845 5844 5843 5842 5841 5840 5839 5837 5836 5834 5833 5831 5830
5851 5851 5851 5851 5851 5852 5851 5851 5850 5850 5849 5848 5847 5847 5846 5845 5845 5844 5844 5844 5843 5843 5843 5843 5843 5842 5842 5841 5841 5840 5839 5838 5837 5836 5835 5833 5832 5830 5828 5827 5825 5823 5822
5847 5847 5847 5848 5848 5847 5847 5847 5846 5845 5845 5844 5843 5842 5842 5841 5840 5839 5839 5838 5838 5838 5838 5838 5837 5837 5836 5835 5835 5834 5833 5831 5830 5828 5827 5826 5824 5822 5820 5818 5816 5814 5813
5843 5843 5843 5843 5843 5843 5843 5842 5842 5841 5840 5839 5838 5838 5837 5836 5835 5834 5834 5833 5833 5833 5832 5832 5831 5830 5830 5829 5828 5827 5825 5824 5822 5820 5819 5817 5815 5812 5810 5808 5806 5804 5802
5839 5839 5839 5839 5839 5838 5838 5837 5837 5836 5835 5834 5834 5833 5832 5831 5830 5829 5828 5828 5827 5827 5826 5825 5824 5823 5822 5821 5820 5818 5817 5815 5813 5812 5810 5807 5805 5802 5800 5797 5795 5792 5790
5834 5834 5834 5834 5834 5833 5833 5833 5832 5831 5830 5829 5828 5827 5826 5826 5825 5824 5823 5822 5821 5820 5820 5819 5817 5816 5814 5812 5811 5809 5807 5805 5804 5802 5800 5797 5795 5792 5789 5786 5783 5780 5777
5829 5829 5829 5829 5829 5828 5828 5827 5826 5825 5825 5824 5823 5822 5821 5820 5819 5818 5817 5815 5814 5813 5812 5811 5809 5807 5806 5804 5802 5800 5797 5795 5793 5791 5789 5786 5783 5780 5777 5774 5771 5768 5765
5825 5824 5824 5824 5823 5823 5822 5821 5821 5820 5819 5818 5817 5816 5815 5814 5812 5811 5810 5808 5806 5805 5804 5802 5800 5798 5797 5795 5792 5790 5787 5784 5782 5779 5777 5774 5771 5768 5764 5761 5758 5755 5752
5819 5819 5819 5818 5818 5817 5816 5815 5814 5813 5812 5811 5810 5809 5808 5806 5805 5803 5801 5800 5798 5797 5795 5793 5791 5789 5786 5784 5782 5779 5776 5773 5770 5767 5764 5761 5757 5754 5751 5747 5744 5741 5738
5814 5813 5813 5812 5812 5811 5810 5809 5808 5807 5806 5804 5803 5802 5800 5798 5797 5795 5793 5791 5789 5787 5785 5783 5781 5778 5776 5773 5770 5767 5764 5761 5757 5754 5751 5747 5744 5740 5736 5733 5729 5725 5722
5808 5807 5807 5806 5805 5804 5804 5803 5801 5800 5798 5797 5795 5793 5792 5790 5788 5786 5784 5782 5779 5777 5775 5772 5770 5767 5764 5761 5758 5755 5751 5748 5744 5740 5736 5733 5729 5725 5722 5718 5714 5710 5706
5801 5800 5800 5799 5798 5797 5796 5795 5794 5792 5790 5789 5787 5785 5783 5781 5779 5777 5774 5772 5770 5767 5764 5761 5759 5755 5752 5749 5745 5742 5738 5734 5730 5726 5722 5718 5714 5710 5707 5703 5698 5694 5689
5794 5793 5792 5791 5790 5789 5788 5787 5786 5784 5782 5780 5778 5776 5774 5772 5769 5767 5764 5762 5759 5756 5753 5750 5747 5743 5740 5736 5733 5729 5725 5721 5717 5712 5708 5704 5700 5695 5691 5687 5682 5677 5673
5786 5785 5784 5783 5782 5781 5780 5778 5777 5775 5773 5772 5769 5767 5765 5762 5759 5756 5753 5751 5748 5745 5742 5738 5734 5731 5727 5723 5720 5716 5711 5707 5703 5698 5694 5689 5685 5680 5675 5671 5666 5660 5655
5778 5777 5776 5775 5774 5773 5771 5770 5768 5766 5764 5762 5760 5757 5755 5752 5749 5746 5743 5740 5737 5733 5730 5726 5722 5718 5714 5710 5706 5702 5697 5693 5688 5684 5679 5674 5669 5664 5659 5654 5649 5643 5638
5770 5769 5768 5767 5765 5764 5762 5760 5759 5757 5755 5752 5750 5747 5744 5741 5738 5735 5732 5728 5725 5721 5717 5714 5710 5705 5701 5697 5692 5687 5683 5678 5673 5669 5664 5659 5653 5648 5642 5637 5632 5626 5621
5761 5760 5759 5758 5756 5755 5753 5751 5749 5747 5744 5742 5739 5737 5734 5730 5727 5724 5720 5717 5713 5709 5705 5701 5696 5692 5687 5683 5678 5673 5668 5663 5658 5653 5648 5643 5637 5631 5626 5620 5615 5609 5603
5752 5751 5750 5749 5747 5745 5743 5741 5739 5737 5734 5731 5728 5725 5722 5719 5715 5712 5708 5704 5700 5696 5692 5687 5683 5678 5673 5668 5663 5658 5653 5648 5643 5637 5632 5626 5621 5615 5609 5603 5597 5591 5585
5743 5742 5740 5739 5737 5735 5733 5731 5729 5726 5723 5720 5717 5714 5710 5707 5703 5700 5696 5692 5688 5683 5678 5674 5669 5664 5659 5654 5649 5643 5638 5632 5627 5621 5615 5609 5604 5598 5592 5586 5580 5574 5568
5733 5732 5730 5728 5727 5725 5722 5720 5717 5714 5711 5708 5705 5702 5698 5695 5691 5687 5683 5679 5674 5670 5665 5660 5655 5650 5645 5640 5634 5628 5623 5617 5611 5605 5599 5593 5587 5581 5575 5569 5563 5557 5552
5723 5721 5720 5718 5716 5714 5711 5709 5706 5703 5699 5696 5693 5689 5686 5682 5678 5674 5670 5665 5661 5656 5651 5646 5641 5635 5630 5625 5619 5613 5607 5601 5595 5589 5582 5577 5571 5565 5559 5553 5547 5542 5536